Regional Weather Roundup
Issued by NWS

Home | Current Version | Previous Version | Text Only | Print | Product List | Glossary On
Versions: 1 2 3 4 5 6 7 8 9 10 11 12 13 14 15 16 17 18 19 20 21 22 23 24 25 26 27 28 29 30 31 32 33 34 35 36 37 38 39 40 41 42 43 44 45 46 47 48 49 50
000
ASUS43 KDTX 231301
RWRMI
MICHIGAN HOURLY REGIONAL WEATHER ROUNDUP
NATIONAL WEATHER SERVICE DETROIT/PONTIAC MI
900 AM EDT WED JUL 23 2014

NOTE: "FAIR" INDICATES FEW OR NO CLOUDS BELOW 12,000 FEET WITH NO
SIGNIFICANT WEATHER AND/OR OBSTRUCTION TO VISIBILITY.

MIZ047>049-052>055-059>063-066>070-074>076-081>083-231400-
SOUTHEAST LOWER MICHIGAN

CITY           SKY/WX    TMP DP  RH WIND       PRES   REMARKS
ADRIAN         CLOUDY    68  60  75 N15       30.02R
ALMA           CLOUDY    64  54  71 N13G22    30.08F
ANN ARBOR      CLOUDY    67  59  75 N13       30.01S
BAD AXE        CLOUDY    62  55  79 N17       30.04S
CARO           CLOUDY    65  60  82 N14       30.04S
DETROIT CITY   CLOUDY    67  61  81 N16       29.99R
DETROIT        CLOUDY    67  62  84 NW13      29.99R
FLINT          CLOUDY    66  57  72 N16       30.03F
GROSSE ILE     CLOUDY    72  66  83 NW14      29.96S
HILLSDALE      CLOUDY    66  64  91 N13       30.03R
HOWELL         CLOUDY    62  57  84 N6        30.03F

CITY           SKY/WX    TMP DP  RH WIND       PRES   REMARKS
JACKSON        CLOUDY    64  58  80 N9        30.03S
LAMBERTVILLE   CLOUDY    72  64  78 N10       29.99R
LANSING        CLOUDY    64  56  75 N10       30.06F
LAPEER         CLOUDY    64  56  77 N12G17    30.03S
MASON          CLOUDY    63  57  82 N13       30.05S
MONROE         CLOUDY    70  66  88 N7        29.97R
MT. CLEMENS    CLOUDY    65  61  86 N12       29.98R
PONTIAC        CLOUDY    65  58  78 N10       30.01F
PORT HOPE        N/A     64  58  80 VRB3      30.03R
PORT HURON     CLOUDY    64  59  82 N13G20    30.00R
TRI CITIES     PTSUNNY   65  56  72 N14       30.07F
TROY           CLOUDY    67  60  79 NW13      30.01S
SAGINAW HB     PTSUNNY   64  55  72 N12       30.05S
$$
MIZ043>046-050>051-056>058-064>065-071>073-077>080-231400-
SOUTHWEST LOWER MICHIGAN

CITY           SKY/WX    TMP DP  RH WIND       PRES   REMARKS
BATTLE CREEK   CLOUDY    65  57  75 N13       30.06S
BENTON HARBOR  MOSUNNY   63  56  78 NE12G23   30.08R
BIG RAPIDS     MOSUNNY   64  55  72 N9G16     30.10F
COLDWATER      CLOUDY    66  62  86 N13       30.04R
FREMONT        FAIR      62  56  79 N9        30.11S
HOLLAND        MOSUNNY   65  57  75 N12G18    30.10R
GRAND RAPIDS   PTSUNNY   66  58  75 NE12      30.08F
IONIA          PTSUNNY   64  56  75 N9        30.07F
KALAMAZOO      CLOUDY    65  57  75 NE12G20   30.07R
LUDINGTON      CLOUDY    60  57  88 N10       30.15S
MARSHALL       CLOUDY    63  58  83 N7        30.05R
MOUNT PLEASANT MOSUNNY   64  56  77 N8        30.08F
MUSKEGON       PTSUNNY   63  55  75 N10       30.12S
SOUTH HAVEN    CLOUDY    63  60  87 N12G18    30.08S
$$
MIZ016>042-231400-
NORTHERN LOWER MICHIGAN

CITY           SKY/WX    TMP DP  RH WIND       PRES   REMARKS
ALPENA         CLOUDY    60  56  86 NW7       30.10R
BEAVER ISLAND  MOSUNNY   58  53  81 N8G17     30.17R
BELLAIRE       CLOUDY    60  54  79 N6        30.13S
CADILLAC       CLOUDY    58  55  89 NW9       30.13S
CHARLEVOIX     CLOUDY    60  55  85 NW10G16   30.17S
FRANKFORT      CLOUDY    60  54  78 N10       30.16R
GAYLORD        CLOUDY    57  52  83 VRB6      30.12S
GRAYLING       CLOUDY    59  56  88 N6        30.13R
HARBOR SPRINGS CLOUDY    60  53  76 N6        30.14R
HOUGHTON LAKE  CLOUDY    61  54  77 N10       30.12S
MANISTEE       CLOUDY    61  54  77 N7        30.16R
OSCODA         MOSUNNY   65  54  67 N13G23    30.06S
PELLSTON       CLOUDY    60  54  80 N9        30.14R
ROGERS CITY    PTSUNNY   60  57  89 NW12      30.12R
TRAVERSE CITY  CLOUDY    61  53  75 N9        30.14R
$$
MIZ007>008-015-231400-
EASTERN UPPER MICHIGAN

CITY           SKY/WX    TMP DP  RH WIND       PRES   REMARKS
KINROSS        CLOUDY    55  55 100 NW7       30.13R
MACKINAC ISLAN CLOUDY    57  54  89 N9        30.13R
NEWBERRY       CLOUDY    53  49  88 N9        30.16R
S. S. MARIE    CLOUDY    59  51  75 N8        30.13R
MUNISING         N/A     53  48  83 NE16      30.20R
$$
MIZ004>006-011>014-085-231400-
CENTRAL UPPER MICHIGAN

CITY           SKY/WX    TMP DP  RH WIND       PRES   REMARKS
MANISTIQUE     CLOUDY    55  51  85 N12       30.17R
ESCANABA       MOSUNNY   57  48  72 N7        30.19R
MENOMINEE      SUNNY     61  54  77 N8        30.19S
$$
MIZ001>003-009>011-084-231400-
WESTERN UPPER MICHIGAN

CITY           SKY/WX    TMP DP  RH WIND       PRES   REMARKS
IRON MOUNTAIN  SUNNY     59  50  72 N12       30.21R
HOUGHTON       SUNNY     61  51  70 NE5       30.22R
COPPER HARBOR    N/A     59  53  80 N10       30.22R
$$

ABBREVIATIONS USED IN REMARKS
   TC - TEMPERATURE IN CELSIUS
  WCI - WIND CHILL INDEX
   HX - HEAT INDEX
  VSB - VISIBILITY



USA.gov is the U.S. government's official web portal to all federal, state and local government web resources and services.